Regional Weather Roundup
Issued by NWS Wakefield, VA

Home | Current Version | Previous Version | Text Only | Print | Product List | Glossary On
Versions: 1 2 3 4 5 6 7 8 9 10 11 12 13 14 15 16 17 18 19 20 21 22 23 24 25 26 27 28 29 30 31 32 33 34 35 36 37 38 39 40 41 42 43 44 45 46 47 48 49 50
000
ASUS41 KAKQ 010415
RWRAKQ

REGIONAL WEATHER ROUNDUP
NATIONAL WEATHER SERVICE WAKEFIELD VA
1200 AM EDT WED JUN 01 2016

Note: "fair" indicates few or no clouds below 12,000 feet with no
significant weather and/or obstructions to visibility. * = Denotes
station may not report precipitation (e.g., rain,snow,etc.),
thunder or fog.

VAZ042-051-052>054-056-010500-
NORTHERN VIRGINIA

CITY           SKY/WX    TMP DP  RH WIND       PRES   REMARKS
WASH NATIONAL  FAIR      74  70  87 S3        29.99S
DULLES         FAIR      71  67  87 CALM      30.00S
FORT BELVOIR   FAIR      66  64  94 CALM      29.99S
QUANTICO       FAIR      72  69  90 CALM      30.00S
FREDERICKSBRG* FAIR      69  69 100 CALM      29.99S
STAFFORD*      FAIR      66  65  94 CALM      30.03F FOG
WARRENTON      FAIR      66  61  84 CALM      30.00S HAZE
CULPEPER*      FAIR      66  66  99 CALM      30.01S
MANASSAS*      FAIR      68  66  94 CALM      30.00S
LEESBURG*      FAIR      68  64  88 CALM      30.01S
WINCHESTER     FAIR      63  59  88 CALM      30.01S
FRONT ROYAL*   FAIR      63  61  94 CALM      30.00F
LURAY*         FAIR      63  63 100 CALM      30.02F
$$

VAZ048-049-060>072-079>083-010500-
CENTRAL AND SOUTH CENTRAL VIRGINIA

CITY           SKY/WX    TMP DP  RH WIND       PRES   REMARKS
RICHMOND       FAIR      69  66  90 SE6       29.99F
CHESTERFIELD*    N/A    N/A N/A N/A MISG        N/A
PETERSBURG*    FAIR      69  69 100 CALM      30.00S
HANOVER        FAIR      70  66  87 CALM      30.01S
TAPPAHANNOCK*  FAIR      70  70  99 CALM      30.00F
QUINTON*       FAIR      68  67  97 S7        29.99F
CHARLOTTSVILLE FAIR      69  62  78 CALM      30.01S
GORDONSVILLE*  FAIR      66  66 100 CALM      30.01R
ORANGE*        FAIR      68  68 100 CALM      30.03S FOG
LOUISA*        FAIR      70  70 100 CALM      30.00S
BUMPASS*       FAIR      68  67  96 CALM      30.00F
FARMVILLE*     FAIR      68  68 100 CALM      29.99S
CREWE*         FAIR      67  67 100 CALM      30.00S
FORT PICKETT*  NOT AVBL
CHASE CITY*    FAIR      69  68  94 CALM      30.00S
CLARKSVILLE*   FAIR      72  72 100 E5        29.99S
SOUTH HILL*    FAIR      70  68  93 CALM      30.05F
LAWRENCEVILLE* FAIR      71  69  93 E3        29.99F
EMPORIA*         N/A     64  64 100 CALM      30.01S
$$

VAZ088>098-010500-
SOUTHEAST VIRGINIA

CITY           SKY/WX    TMP DP  RH WIND       PRES   REMARKS
NORFOLK        FAIR      70  66  87 CALM      29.99S
VIRGINIA BEACH FAIR      73  66  78 CALM      29.97F
NORFOLK NAVAL  FAIR      69  66  90 CALM      30.00F
WEST POINT*    FAIR      69  68  96 CALM      30.01S
SALUDA*        FAIR      69  69  99 S5        30.00R
NEWPORT NEWS   FAIR      68  67  96 NE3       29.99F
LANGLEY AFB    FAIR      69  68  94 E2        29.99F
FORT EUSTIS    FAIR      70  63  78 S1        29.97F
WILLIAMSBURG*  FAIR      70  70 100 CALM      30.00F
HR EXEC AP*      N/A     64  61  88 CALM      30.00F
FRANKLIN*      FAIR      67  65  94 CALM      30.00S
US460-WAKEFLD  FAIR      67  65  93 CALM      30.00S
$$

VAZ020-022-025-037-045-010500-
WEST CENTRAL AND SOUTHWEST VIRGINIA

CITY           SKY/WX    TMP DP  RH WIND       PRES   REMARKS
STAUNTON*      FAIR      63  61  93 CALM      30.06R
WAYNESBORO*    FAIR      67  63  89 W6        30.05R
HOT SPRINGS VA FAIR      65  64  99 S7        30.14S
LYNCHBURG      FAIR      67  65  93 CALM      30.03S
DANVILLE       FAIR      68  66  93 CALM      30.00S
SOUTH BOSTON*  FAIR      68  67  95 CALM      30.00S
MARTINSVILLE   FAIR      64  63  95 CALM      30.05R
ROANOKE        FAIR      74  64  71 CALM      30.05S
BLACKSBURG     FAIR      67  64  90 CALM      30.10S
DUBLIN*        FAIR      67  66  96 CALM      30.09S
MARION*        FAIR      64  62  95 CALM      30.12R FOG
HILLSVILLE*    FAIR      63  63  99 CALM      30.09F FOG
RICHLANDS*     CLOUDY    65  56  73 NE7       30.08S
WISE*          MOCLDY    68  55  64 CALM      30.09S
ABINGDON*      FAIR      68  62  82 E5        30.06S
$$

MDZ021>025-VAZ099-100-010500-
SOUTHERN MARYLAND AND THE DELMARVA PENINSULA

CITY           SKY/WX    TMP DP  RH WIND       PRES   REMARKS
PATUXENT RIVER PTCLDY    70  66  87 SW3       29.98F
BAY BRIDGE APT CLEAR     72  68  88 CALM      29.99S
LEONARDTOWN    CLEAR     70  64  83 CALM      30.01S
DOVER          CLEAR     73  73 100 S5        29.97F
GEORGETOWN     CLEAR     69  67  93 CALM      30.00S
EASTON         CLEAR     71  71 100 CALM      30.02F
CAMBRIDGE        N/A     68  66  94 CALM      29.99S
SALISBURY      PTCLDY    69  67  93 CALM      29.99F
OCEAN CITY     PTCLDY    69  67  93 S3        29.99F
WALLOPS ISLAND FAIR      69  67  93 S3        30.00S
ACCOMACK*      FAIR      68  64  88 CALM      30.00S
$$

NCZ012>017-030>032-010500-
NORTH CENTRAL AND EASTERN NORTH CAROLINA

CITY           SKY/WX    TMP DP  RH WIND       PRES   REMARKS
ROANOKE RAPIDS FAIR      70  68  94 CALM      29.99F
RALEIGH        CLOUDY    74  68  81 SE5       29.99S
ELIZABETH CITY CLEAR     70  67  90 NE7       29.98F
AHOSKIE*       PTCLDY    68  66  94 CALM      29.99F
EDENTON*       CLEAR     70  70 100 NE3       29.99S
CURRITUCK*     CLEAR     71  68  93 CALM      29.99F
KILL DEVIL HLS CLEAR     69  68  97 CALM      29.97R
MANTEO         CLEAR     70  70 100 E7        29.98S
CAPE HATTERAS  RAIN      73  72  96 E3        29.97R
TARBORO*       FAIR      70  67  90 CALM      29.99S
GOLDSBORO      MOCLDY    72  72 100 E5        29.95S
WASHINGTON     CLEAR     68  67  97 NE3       29.97S
GREENVILLE     CLEAR     70  70 100 E3        29.99F
NEW BERN       CLOUDY    72  69  90 NE3       29.97S
WILMINGTON     CLOUDY    74  72  93 NE7       29.93F
$$

VAZ048-010500-
ELSEWHERE

CITY           SKY/WX    TMP DP  RH WIND       PRES   REMARKS
HARRISBURG PA  CLOUDY    72  61  68 CALM      29.98S
BALTIMORE      PTCLDY    67  64  90 CALM      29.98S
ANNAPOLIS      CLEAR     70  69  97 CALM      29.99R
ANDREWS AFB    FAIR      68  66  94 S2        29.99R
PHILADELPHIA   MOCLDY    73  64  73 SW5       29.99S
HENDERSON NC   CLOUDY    68  66  93 CALM      29.99F
GREENSBORO     PTCLDY    72  65  78 E3        30.00S
ROCKY MOUNT    PTCLDY    70  69  97 CALM      29.98S
$$

VAZ100-010500-
MARINE

STATION/POSITION TIME  TEMP    WIND        PRES    WAVE   SWELL
                       AIR SEA DIR/SP/G            HT/PER HT/PER
                 (UTC) (F)     (DEG/KT/KT) (MB)    (FT/S) (FT/S)
BRANDYWINE LGT   0300                      1015.8R
CAPE MAY NJ      0300      69              1015.7
LEWES DE         0300      65              1015.6
15NM E FENWICK I 0350   68 68              1015.8F   4/ 8
OCEAN-CITY-INLET 0300      64              1016.1
WACHAPREAGUE VA  0300      79              1015.5
THOMAS POINT MD  0400   73 70  200/  6/  6 1016.8R
GOOSES REEF MD   0300   73 72  190/  8/  8 1016.4F
COVE POINT MD    0300                      1016.1S
SOLOMONS ISLAND  0300      70                N/A
BISHOPS HEAD MD  0300      80              1015.7
PINEY POINT MD   0330          200/  4/  5   N/A
POTOMAC MD       0300   74 74  200/  8/ 10 1014.7R
CAMBRIDGE MD     0300      72              1014.6
LEWISETTA VA     0300      76              1015.2
RAPPAHANNOCK LGT 0300                      1016.4S
STINGRAY PT      0300   73 72  160/  6/  8 1016.3R   0
YORK RVR RNG VA  0300                      1015.2S
YORKTOWN VA      0300      70              1015.5
JAMESTOWN VA     0300   74 77  100/  6/  8   N/A
DOMINION TERM VA 0300                      1015.8R
KIPTOPEKE VA     0300      70                N/A
CHES BAY BRIDGE  0300      71              1015.8
CAPE HENRY VA    0312   69                   N/A
CHESAPEAKE LGHT  0300   71     100/  7/  8 1016.3S
WILLOUBY STN VA  0300                      1016.7R
CAPE HENRY BUOY  0312      72                N/A     3/ 8
1ST LANDING BUOY 0300   69 67   70/  4/  6 1015.8R   1/ 5
CAPE CHARLES BUO 0326      70                N/A     3/ 8   2/ 8
OFFSHORE WE BUOY 0321      72                N/A     4/ 7   3/ 7
64NM E OF VA BCH 0350   73 67   70/  6/  6 1015.0F   3/ 7   3/ 7
DUCK PIER NC     0300      65              1014.4
44056 DUCK FRF   0311      67                N/A     3/ 8
OREGON INLET NC  0312   71 71              1014.5
HATTERAS NC      0300      76              1013.9
DIAMOND SHLS NC  0350   78 80  180/ 14/ 16 1014.3F   3/ 8   3/ 8
CAPE LOOKOUT NC  0400   75      70/  6/  7 1013.7S
$$



USA.gov is the U.S. government's official web portal to all federal, state and local government web resources and services.